NOAA 16 DEB, 42382

Orbit data source: Space-Track

NOAA 16 DEB, 42382 is space debris in SSO originally from a launch on Thu, 21 Sep 2000 UTC launched from the Air Force Western Test Range (AFWTR). Debris objects in space refer to the collection of defunct objects orbiting the Earth. Examples of debris include non-operational satellites, rocket bodies, and fragments generated from explosions, collisions, or faulty payload assembly.

Loading next visibility...
Identifier
42382, 2000-055SA
Orbit
SSO
Country
Flag of USUS
Related business
Manufacturer
Unknown
Mission
Spacecraft
Bus & Motor
Unknown
Mass
Unknown
Launch date (UTC)
2000-09-21 (26 years ago)
Launch vehicle
Unknown
Launch site
Air Force Western Test Range (AFWTR)
Object type
Payload
Rocket body
Debris
Shape & HBR
Unknown shape, 0.1 m
Radar Cross Section
Small (<0.1 m²)

Expand to show TLE details & history
Last TLE update: 12 hours ago

TLE from 12 hours ago
0 NOAA 16 DEB
1 42382U 00055SA  26236.10457713  .00003267  00000-0  12943-2 0  9995
2 42382  98.8961 339.7416 0034193 344.8099  15.2052 14.29277010538792
Epoch: 2026-08-24T02:30Z
TLE epoch observation values (Epoch: 2026-08-24T02:30:35.464Z)
Latitude
-0.00004°
Longitude
-30.29723°
Altitude
773.405 km
Speed
7.48 km/s
True Right ascension
22h 38m 57s
True Declination
0° 00' 00"
Sunlit
Object was in full shadow at epoch
Visualization orbit readout
Latitude
Unknown
Longitude
Unknown
Altitude
Unknown
Speed
Unknown
Apparent Right ascension
Unknown
Apparent Declination
Unknown
Sunlit
N/A
Visualization observer readout
Local Sidereal Time
05:20:43
Azimuth
Unknown
Elevation
Unknown
Doppler factor
Unknown
Orbital elements
Apogee altitude
815.818 km
Perigee altitude
766.789 km
Semi-major axis
7,169.441 km
Eccentricity
0.00342
Inclination
98.8961°
RAAN
339.7416°
Arg. of periapsis
344.8099°
True anomaly
15.30839°
Mean anomaly
15.2052°
Eccentric anomaly
15.25675°
Mean motion
3.57532 °/min
Orbital period
100.69 mins
BSTAR
0.0012943
Loading maneuver chart data...
Computing Atmospheric mass density...
Loading historical data...
Loading historical data...
Loading historical data...
Loading historical data...
Loading historical data...
Loading historical data...
Loading historical data...

Documentation

Showing up to 5 results
|